Pagina principale
METAR-TAF:

METAR-TAF

Aeroporti :

Jaffrey, New Hampshire, Stati Uniti

latitudine: 42-48-21N, longitudine: 072-00-02W, altezza: 317 m

Osservazione

Il bollettino è stato emesso 23 minuti fa, alle 06:30 UTC
Vento calmo
Temperature 20°C
Umidità 94%
Pressione 1015 hPa
Visibilità: 16.1 km
Nuvoloso ad un'altezza di 900 ft
Cielo coperto ad un'altezza di 1600 ft

METAR: KAFN 140630Z AUTO 00000KT 10SM BKN009 OVC016 20/19 A2996 RMK AO2 CIG 005V010 T02000194

Ora: 02:53 (06:53 UTC)


TAF: mancante

Osservazioni e previsioni meteorologiche di più di 4000 aeroporti (messaggi METAR e TAF).

Le stazioni disponibili sono rappresentate dai dischi gialli e rossi sulla carta.

Puntare il mouse per vedere il nome della stazione.

Clicca sopra per visualizzare le osservazioni e previsioni meteorologiche.

Per cambiare la mappa : fare clic sui pulsanti verdi con una croce nera per ingrandire, il pulsante verde con un trattino per diminuire, o sulla freccia verde per le mappe adiacenti.


METAR-TAF: